{"data":{"norad_id":68571,"epoch":"2026-05-24T06:53:18.070080Z","epoch_age_seconds":136521,"freshness":"FRESH","line1":"1 68571U 26071A   26144.28701470  .00000014  00000+0  00000+0 0  9992","line2":"2 68571  62.7922 231.9261 7192148 285.1326  11.1880  2.00618586  1039","mean_motion":2.00618586,"eccentricity":0.7192148,"inclination_deg":62.7922,"raan_deg":231.9261,"arg_perigee_deg":285.1326,"mean_anomaly_deg":11.188,"bstar":0,"rev_number":103,"period_min":717.7799568381,"perigee_km":1078.2529190033,"apogee_km":39276.462684461,"semimajor_km":26555.494801732,"source":"CELESTRAK","updated_at":"2026-05-25T13:38:07.921754Z"}}